| time (UTC) | temp F | wind direction | speed MPH | gust MPH | rain 1hr in | rain 24hr in | rain mn in | humidity % | barometer mb |
| 20260504221009 | 76 | 15 | 13.0 | 23.0 | 0.00 | 0.00 | 0.00 | 28 | 1003.7 |
| 20260504220510 | 77 | 336 | 9.0 | 25.0 | 0.00 | 0.00 | 0.00 | 28 | 1003.5 |
| 20260504220010 | 77 | 356 | 13.0 | 25.0 | 0.00 | 0.00 | 0.00 | 27 | 1003.5 |
| 20260504215510 | 77 | 328 | 7.0 | 20.0 | 0.00 | 0.00 | 0.00 | 29 | 1003.4 |
| 20260504214510 | 78 | 359 | 12.0 | 24.0 | 0.00 | 0.00 | 0.00 | 27 | 1003.4 |
| 20260504214010 | 79 | 336 | 5.0 | 15.0 | 0.00 | 0.00 | 0.00 | 28 | 1003.3 |
| 20260504213010 | 79 | 342 | 7.0 | 15.0 | 0.00 | 0.00 | 0.00 | 29 | 1003.3 |
| 20260504212510 | 79 | 294 | 7.0 | 15.0 | 0.00 | 0.00 | 0.00 | 28 | 1003.2 |
| 20260504212010 | 80 | 355 | 7.0 | 13.0 | 0.00 | 0.00 | 0.00 | 29 | 1003.1 |
| 20260504211510 | 80 | 345 | 7.0 | 13.0 | 0.00 | 0.00 | 0.00 | 29 | 1003.1 |
| 20260504211010 | 80 | 308 | 3.0 | 12.0 | 0.00 | 0.00 | 0.00 | 30 | 1003.0 |
| 20260504210510 | 80 | 345 | 3.0 | 12.0 | 0.00 | 0.00 | 0.00 | 31 | 1003.1 |
| 20260504205510 | 80 | 298 | 4.0 | 12.0 | 0.00 | 0.00 | 0.00 | 31 | 1002.8 |
| 20260504205010 | 80 | 341 | 4.0 | 15.0 | 0.00 | 0.00 | 0.00 | 31 | 1002.8 |
| 20260504204510 | 80 | 340 | 6.0 | 18.0 | 0.00 | 0.00 | 0.00 | 30 | 1002.8 |
| 20260504204010 | 80 | 323 | 10.0 | 18.0 | 0.00 | 0.00 | 0.00 | 30 | 1002.7 |
| 20260504203510 | 80 | 275 | 5.0 | 14.0 | 0.00 | 0.00 | 0.00 | 32 | 1002.7 |
| 20260504203010 | 80 | 24 | 8.0 | 15.0 | 0.00 | 0.00 | 0.00 | 31 | 1002.7 |
| 20260504202509 | 80 | 324 | 3.0 | 20.0 | 0.00 | 0.00 | 0.00 | 33 | 1002.7 |
| 20260504202010 | 80 | 31 | 9.0 | 20.0 | 0.00 | 0.00 | 0.00 | 32 | 1002.7 |
| 20260504201510 | 80 | 342 | 5.0 | 20.0 | 0.00 | 0.00 | 0.00 | 34 | 1002.7 |
| 20260504200509 | 81 | 68 | 8.0 | 16.0 | 0.00 | 0.00 | 0.00 | 34 | 1002.7 |
| 20260504200008 | 81 | 0 | 3.0 | 16.0 | 0.00 | 0.00 | 0.00 | 35 | 1002.6 |
| 20260504195509 | 81 | 267 | 2.0 | 17.0 | 0.00 | 0.00 | 0.00 | 35 | 1002.5 |
| 20260504195009 | 81 | 32 | 9.0 | 17.0 | 0.00 | 0.00 | 0.00 | 33 | 1002.4 |
| 20260504194009 | 81 | 317 | 3.0 | 14.0 | 0.00 | 0.00 | 0.00 | 34 | 1002.2 |
| 20260504193509 | 81 | 311 | 3.0 | 17.0 | 0.00 | 0.00 | 0.00 | 33 | 1002.2 |
| 20260504193009 | 81 | 5 | 6.0 | 17.0 | 0.00 | 0.00 | 0.00 | 33 | 1002.2 |
| 20260504192508 | 81 | 283 | 2.0 | 12.0 | 0.00 | 0.00 | 0.00 | 35 | 1002.2 |
| 20260504192010 | 81 | 300 | 4.0 | 12.0 | 0.00 | 0.00 | 0.00 | 34 | 1002.1 |
| 20260504191510 | 81 | 309 | 5.0 | 12.0 | 0.00 | 0.00 | 0.00 | 32 | 1002.1 |
| 20260504191009 | 81 | 352 | 6.0 | 12.0 | 0.00 | 0.00 | 0.00 | 31 | 1002.1 |
| 20260504190509 | 82 | 276 | 3.0 | 14.0 | 0.00 | 0.00 | 0.00 | 34 | 1002.1 |
| 20260504190012 | 82 | 272 | 4.0 | 14.0 | 0.00 | 0.00 | 0.00 | 32 | 1002.0 |
| 20260504185509 | 82 | 291 | 4.0 | 13.0 | 0.00 | 0.00 | 0.00 | 33 | 1001.9 |
| 20260504185009 | 82 | 313 | 4.0 | 17.0 | 0.00 | 0.00 | 0.00 | 30 | 1001.8 |
| 20260504184009 | 82 | 342 | 5.0 | 12.0 | 0.00 | 0.00 | 0.00 | 31 | 1001.7 |
| 20260504183509 | 82 | 280 | 4.0 | 9.0 | 0.00 | 0.00 | 0.00 | 31 | 1001.6 |
| 20260504183010 | 82 | 285 | 2.0 | 16.0 | 0.00 | 0.00 | 0.00 | 29 | 1001.8 |
| 20260504182510 | 82 | 251 | 6.0 | 16.0 | 0.00 | 0.00 | 0.00 | 31 | 1001.6 |
| 20260504182009 | 82 | 255 | 3.0 | 12.0 | 0.00 | 0.00 | 0.00 | 31 | 1001.7 |
| 20260504181510 | 82 | 245 | 3.0 | 12.0 | 0.00 | 0.00 | 0.00 | 31 | 1001.8 |
| 20260504181010 | 82 | 347 | 5.0 | 13.0 | 0.00 | 0.00 | 0.00 | 30 | 1001.8 |
| 20260504180510 | 82 | 337 | 5.0 | 13.0 | 0.00 | 0.00 | 0.00 | 30 | 1001.8 |
| 20260504180010 | 82 | 266 | 3.0 | 15.0 | 0.00 | 0.00 | 0.00 | 30 | 1001.9 |
| 20260504175010 | 82 | 351 | 6.0 | 15.0 | 0.00 | 0.00 | 0.00 | 32 | 1002.0 |
| 20260504174510 | 81 | 279 | 5.0 | 12.0 | 0.00 | 0.00 | 0.00 | 33 | 1002.0 |
| 20260504174010 | 81 | 280 | 3.0 | 12.0 | 0.00 | 0.00 | 0.00 | 35 | 1002.0 |
| 20260504173510 | 81 | 285 | 2.0 | 12.0 | 0.00 | 0.00 | 0.00 | 33 | 1002.0 |
| 20260504173011 | 80 | 277 | 3.0 | 14.0 | 0.00 | 0.00 | 0.00 | 35 | 1002.0 |
| 20260504172010 | 81 | 257 | 3.0 | 10.0 | 0.00 | 0.00 | 0.00 | 33 | 1002.1 |
| 20260504171510 | 80 | 291 | 3.0 | 12.0 | 0.00 | 0.00 | 0.00 | 34 | 1002.1 |
| 20260504170510 | 79 | 268 | 2.0 | 6.0 | 0.00 | 0.00 | 0.00 | 40 | 1002.3 |
| 20260504151009 | 67 | 255 | 2.0 | 7.0 | 0.00 | 0.00 | 0.00 | 50 | 1002.6 |
| 20260504150509 | 66 | 251 | 1.0 | 3.0 | 0.00 | 0.00 | 0.00 | 51 | 1002.7 |
| 20260504140509 | 61 | 253 | 3.0 | 5.0 | 0.00 | 0.00 | 0.00 | 58 | 1003.5 |
| 20260504130510 | 54 | 218 | 1.0 | 2.0 | 0.00 | 0.00 | 0.00 | 85 | 1003.5 |
| 20260504100509 | 49 | 243 | 0.0 | 0.0 | 0.00 | 0.00 | 0.00 | 78 | 1003.3 |
| 20260504081510 | 51 | 243 | 0.0 | 0.0 | 0.00 | 0.00 | 0.00 | 76 | 1004.5 |
| 20260504081010 | 51 | 243 | 0.0 | 0.0 | 0.00 | 0.00 | 0.00 | 76 | 1004.6 |
| 20260504080510 | 51 | 242 | 0.0 | 0.0 | 0.00 | 0.00 | 0.00 | 76 | 1004.7 |
| 20260504045512 | 58 | 243 | 0.0 | 0.0 | 0.00 | 0.00 | 0.00 | 59 | 1007.1 |
| 20260504045010 | 58 | 243 | 0.0 | 0.0 | 0.00 | 0.00 | 0.00 | 60 | 1007.1 |
| 20260504044510 | 58 | 243 | 0.0 | 0.0 | 0.00 | 0.00 | 0.00 | 59 | 1007.2 |
| 20260504043509 | 59 | 243 | 0.0 | 0.0 | 0.00 | 0.00 | 0.00 | 58 | 1007.3 |
| 20260504043010 | 59 | 243 | 0.0 | 0.0 | 0.00 | 0.00 | 0.00 | 57 | 1007.3 |
| 20260504042510 | 60 | 242 | 0.0 | 0.0 | 0.00 | 0.00 | 0.00 | 57 | 1007.3 |
| 20260504042010 | 60 | 244 | 0.0 | 0.0 | 0.00 | 0.00 | 0.00 | 57 | 1007.4 |
| 20260504041509 | 60 | 244 | 0.0 | 0.0 | 0.00 | 0.00 | 0.00 | 57 | 1007.5 |
| 20260504041011 | 60 | 243 | 0.0 | 0.0 | 0.00 | 0.00 | 0.00 | 57 | 1007.5 |
| 20260504040009 | 61 | 244 | 0.0 | 0.0 | 0.00 | 0.00 | 0.00 | 55 | 1007.8 |
| 20260504035509 | 61 | 243 | 0.0 | 0.0 | 0.00 | 0.00 | 0.00 | 55 | 1007.8 |
| 20260504035009 | 62 | 243 | 0.0 | 0.0 | 0.00 | 0.00 | 0.00 | 54 | 1007.8 |
| 20260504034508 | 62 | 244 | 0.0 | 0.0 | 0.00 | 0.00 | 0.00 | 53 | 1007.9 |
| 20260504033509 | 62 | 244 | 0.0 | 0.0 | 0.00 | 0.00 | 0.00 | 53 | 1008.1 |
| 20260504033009 | 63 | 244 | 0.0 | 0.0 | 0.00 | 0.00 | 0.00 | 52 | 1008.1 |
| 20260504032508 | 63 | 244 | 0.0 | 0.0 | 0.00 | 0.00 | 0.00 | 52 | 1008.2 |
| 20260504031508 | 63 | 244 | 0.0 | 0.0 | 0.00 | 0.00 | 0.00 | 51 | 1008.2 |
| 20260504031009 | 63 | 244 | 0.0 | 0.0 | 0.00 | 0.00 | 0.00 | 51 | 1008.1 |
| 20260504030010 | 64 | 244 | 0.0 | 0.0 | 0.00 | 0.00 | 0.00 | 50 | 1008.3 |
| 20260504025009 | 64 | 244 | 0.0 | 0.0 | 0.00 | 0.00 | 0.00 | 49 | 1008.3 |
| 20260504024009 | 65 | 244 | 0.0 | 0.0 | 0.00 | 0.00 | 0.00 | 48 | 1008.3 |
| 20260504023509 | 65 | 244 | 0.0 | 0.0 | 0.00 | 0.00 | 0.00 | 46 | 1008.3 |
| 20260504023013 | 65 | 244 | 0.0 | 0.0 | 0.00 | 0.00 | 0.00 | 46 | 1008.3 |
| 20260504022509 | 66 | 244 | 0.0 | 0.0 | 0.00 | 0.00 | 0.00 | 45 | 1008.2 |
| 20260504022009 | 66 | 244 | 0.0 | 0.0 | 0.00 | 0.00 | 0.00 | 45 | 1008.3 |
| 20260504021009 | 67 | 244 | 0.0 | 0.0 | 0.00 | 0.00 | 0.00 | 43 | 1008.4 |
| 20260504020509 | 67 | 244 | 0.0 | 0.0 | 0.00 | 0.00 | 0.00 | 42 | 1008.4 |
| 20260504020009 | 68 | 244 | 0.0 | 0.0 | 0.00 | 0.00 | 0.00 | 42 | 1008.5 |
| 20260504015509 | 68 | 244 | 0.0 | 0.0 | 0.00 | 0.00 | 0.00 | 41 | 1008.6 |
| 20260504015010 | 69 | 244 | 0.0 | 0.0 | 0.00 | 0.00 | 0.00 | 40 | 1008.6 |
| 20260504014510 | 69 | 244 | 0.0 | 0.0 | 0.00 | 0.00 | 0.00 | 39 | 1008.6 |
| 20260504014009 | 70 | 244 | 0.0 | 0.0 | 0.00 | 0.00 | 0.00 | 38 | 1008.4 |
| 20260504013510 | 70 | 244 | 0.0 | 0.0 | 0.00 | 0.00 | 0.00 | 37 | 1008.3 |
| 20260504013010 | 71 | 244 | 0.0 | 0.0 | 0.00 | 0.00 | 0.00 | 37 | 1008.3 |
| 20260504012010 | 72 | 244 | 0.0 | 0.0 | 0.00 | 0.00 | 0.00 | 35 | 1008.3 |
| 20260504011009 | 73 | 244 | 0.0 | 0.0 | 0.00 | 0.00 | 0.00 | 34 | 1008.3 |
| 20260504010010 | 74 | 244 | 0.0 | 1.0 | 0.00 | 0.00 | 0.00 | 32 | 1008.4 |
| 20260504005509 | 74 | 244 | 0.0 | 1.0 | 0.00 | 0.00 | 0.00 | 32 | 1008.5 |
| 20260504005010 | 75 | 244 | 0.0 | 2.0 | 0.00 | 0.00 | 0.00 | 33 | 1008.5 |
| 20260504004510 | 75 | 244 | 1.0 | 2.0 | 0.00 | 0.00 | 0.00 | 33 | 1008.5 |
| 20260504004010 | 75 | 244 | 0.0 | 2.0 | 0.00 | 0.00 | 0.00 | 32 | 1008.5 |
| 20260504003509 | 76 | 244 | 1.0 | 2.0 | 0.00 | 0.00 | 0.00 | 31 | 1008.5 |
| 20260504002510 | 76 | 244 | 0.0 | 3.0 | 0.00 | 0.00 | 0.00 | 31 | 1008.6 |
| 20260504002010 | 76 | 242 | 2.0 | 3.0 | 0.00 | 0.00 | 0.00 | 31 | 1008.6 |
| 20260504001510 | 76 | 256 | 0.0 | 3.0 | 0.00 | 0.00 | 0.00 | 32 | 1008.6 |
| 20260504000510 | 76 | 257 | 3.0 | 7.0 | 0.00 | 0.00 | 0.00 | 30 | 1008.6 |
| 20260504000009 | 76 | 248 | 1.0 | 6.0 | 0.00 | 0.00 | 0.00 | 30 | 1008.8 |
| 20260503235510 | 76 | 259 | 3.0 | 6.0 | 0.00 | 0.00 | 0.00 | 29 | 1008.8 |
| 20260503235010 | 77 | 257 | 2.0 | 3.0 | 0.00 | 0.00 | 0.00 | 31 | 1008.7 |
| 20260503234509 | 77 | 20 | 1.0 | 5.0 | 0.00 | 0.00 | 0.00 | 29 | 1008.8 |
| 20260503234010 | 77 | 247 | 1.0 | 9.0 | 0.00 | 0.00 | 0.00 | 28 | 1009.0 |
| 20260503233510 | 77 | 246 | 2.0 | 10.0 | 0.00 | 0.00 | 0.00 | 29 | 1009.0 |
| 20260503233010 | 77 | 251 | 5.0 | 10.0 | 0.00 | 0.00 | 0.00 | 28 | 1009.0 |
| 20260503232009 | 78 | 250 | 2.0 | 5.0 | 0.00 | 0.00 | 0.00 | 30 | 1008.9 |
| 20260503231509 | 78 | 275 | 2.0 | 5.0 | 0.00 | 0.00 | 0.00 | 28 | 1009.0 |
| 20260503231009 | 78 | 252 | 1.0 | 5.0 | 0.00 | 0.00 | 0.00 | 28 | 1009.0 |
| 20260503230509 | 78 | 337 | 2.0 | 5.0 | 0.00 | 0.00 | 0.00 | 28 | 1009.0 |
| 20260503230009 | 78 | 251 | 1.0 | 3.0 | 0.00 | 0.00 | 0.00 | 30 | 1009.1 |
| 20260503225509 | 78 | 255 | 0.0 | 3.0 | 0.00 | 0.00 | 0.00 | 31 | 1009.0 |
| 20260503225009 | 78 | 244 | 1.0 | 10.0 | 0.00 | 0.00 | 0.00 | 28 | 1009.1 |
| 20260503224508 | 77 | 233 | 4.0 | 10.0 | 0.00 | 0.00 | 0.00 | 29 | 1009.1 |
| 20260503224009 | 77 | 267 | 2.0 | 3.0 | 0.00 | 0.00 | 0.00 | 29 | 1009.1 |
| 20260503223509 | 77 | 267 | 1.0 | 5.0 | 0.00 | 0.00 | 0.00 | 31 | 1009.1 |
| 20260503223009 | 76 | 214 | 2.0 | 6.0 | 0.00 | 0.00 | 0.00 | 30 | 1009.2 |
| 20260503222508 | 76 | 275 | 3.0 | 7.0 | 0.00 | 0.00 | 0.00 | 31 | 1009.2 |
| 20260503222009 | 76 | 252 | 2.0 | 10.0 | 0.00 | 0.00 | 0.00 | 30 | 1009.2 |
| 20260503221509 | 76 | 22 | 5.0 | 10.0 | 0.00 | 0.00 | 0.00 | 30 | 1009.2 |